Wetbulb
60.79 61.27 61.28 61.60 62.09 61.89 61.50 61.73 61.61 61.27 60.88 61.11 61.81 62.06 61.65 62.51 62.56 60.47 55.78 60.22 61.42 63.57 62.86 58.42 57.77 56.57 54.97 52.66 52.05 47.98 41.00 37.49 39.89 40.31 42.56 46.06 44.63 48.04 48.94 47.32 49.53 54.92 53.36 56.69 60.44
60.68 60.59 60.92 61.40 61.29 61.39 61.97 62.08 61.76 61.36 61.03 60.64 61.25 61.88 61.69 62.38 58.18 55.17 61.57 65.43 66.06 63.90 58.65 55.63 53.72 54.65 50.59 50.44 50.43 45.68 40.07 41.18 44.06 44.96 43.32 46.25 45.42 46.19 46.01 45.81 46.48 50.78 56.53 59.01 60.15
59.84 60.71 60.88 60.74 61.18 60.86 61.06 61.61 61.49 61.39 61.13 60.64 60.38 61.39 61.32 60.74 50.29 50.66 62.71 64.99 65.24 63.25 58.66 57.19 55.47 52.95 48.51 49.04 47.97 45.78 41.82 44.88 46.51 46.92 47.51 46.59 46.85 47.60 44.74 42.61 45.49 46.87 51.80 56.98 57.57
59.08 59.77 60.10 60.27 60.51 60.81 60.89 60.80 60.86 61.06 61.33 60.80 60.17 61.06 60.97 57.49 36.10 53.58 64.18 65.71 64.88 61.12 57.96 55.36 53.07 48.17 45.90 45.30 48.36 43.22 47.33 47.32 48.87 49.14 48.13 46.60 47.81 46.39 46.56 47.71 48.99 48.75 48.43 57.30 58.59
58.45 58.40 58.93 59.23 59.54 59.93 60.38 60.47 60.65 60.73 60.95 60.97 60.30 60.89 57.05 50.11 50.01 58.71 62.34 63.38 61.81 58.29 56.44 54.07 51.08 49.19 44.83 46.26 47.36 45.15 46.90 48.73 49.52 49.06 48.45 48.81 47.43 47.06 47.71 50.31 51.39 50.26 50.79 56.02 58.16
58.17 57.73 58.02 58.20 58.63 58.96 59.42 60.14 60.28 60.53 60.50 60.96 60.49 60.26 53.09 44.35 55.82 58.83 59.80 59.37 57.97 56.78 55.52 54.56 52.00 51.99 47.76 46.40 45.65 47.01 47.34 47.64 48.14 47.93 47.15 46.28 45.40 46.13 46.83 49.09 48.88 48.89 49.05 48.88 56.20
57.91 57.46 57.53 57.71 58.21 58.55 58.71 59.26 60.12 59.93 60.15 60.34 60.61 56.77 50.27 46.89 55.41 55.15 57.62 56.93 58.43 57.10 54.62 55.66 54.91 51.21 50.79 47.54 49.23 47.64 43.59 45.33 45.79 47.22 45.88 46.02 42.93 43.22 47.79 47.96 47.37 47.41 46.84 46.88 47.80
56.96 56.72 56.85 57.29 57.84 58.21 58.31 58.69 59.01 59.68 59.72 59.70 59.84 52.27 43.72 53.00 53.98 54.19 54.02 54.33 58.59 58.21 56.78 56.42 56.27 54.54 52.37 50.13 47.80 42.57 41.04 36.82 43.80 45.41 47.25 45.26 40.27 45.67 48.31 46.40 47.01 46.06 45.59 45.78 47.24
55.89 56.19 56.53 56.67 56.99 57.13 57.79 57.99 57.94 58.70 58.75 58.68 54.69 47.49 42.21 54.76 50.33 53.79 53.68 53.03 56.53 56.93 55.97 57.58 54.34 49.74 50.67 44.49 40.57 39.98 34.37 35.19 40.29 45.50 44.49 43.55 38.35 44.99 46.71 44.80 44.86 44.81 45.18 45.48 46.03
55.30 55.47 55.80 56.09 56.34 56.74 56.83 56.76 56.85 56.01 55.68 56.22 53.63 46.06 47.34 45.27 50.59 53.61 54.46 54.70 53.41 52.48 51.58 50.39 47.10 43.85 46.71 44.30 34.33 36.95 35.27 38.78 36.79 41.58 41.51 40.60 39.98 42.67 45.25 44.67 44.06 43.81 43.60 44.27 45.76
55.52 55.31 55.41 55.56 55.77 56.52 55.22 50.33 44.14 43.55 48.08 45.46 46.88 45.15 45.40 49.40 53.65 50.92 55.04 53.46 52.66 50.16 44.71 45.42 43.31 39.04 40.42 42.70 41.99 38.39 35.10 33.34 37.64 42.47 39.58 38.89 39.84 42.32 43.39 42.23 42.74 43.46 44.24 45.09 46.36
54.87 55.15 55.36 55.38 55.76 55.66 52.12 44.37 43.88 44.78 40.43 47.18 48.81 47.37 48.15 49.90 46.58 49.65 54.05 47.21 46.73 43.37 45.79 43.27 40.26 42.45 44.57 43.79 42.43 41.31 39.36 38.10 40.87 42.50 39.88 38.23 39.06 40.91 41.78 42.55 43.54 44.35 44.44 45.83 48.05
54.19 54.36 55.03 54.95 54.98 52.24 48.66 45.95 50.46 48.69 39.46 42.04 46.05 47.26 46.58 47.64 43.65 45.90 49.37 46.94 43.37 40.55 42.80 39.51 40.74 43.66 41.83 39.23 38.59 37.98 36.91 36.42 36.99 39.02 39.43 36.18 36.53 38.02 40.81 42.04 43.62 44.17 45.29 46.35 46.81
54.01 54.14 53.98 53.82 49.22 47.28 46.60 49.53 50.64 49.31 33.36 33.48 41.03 44.84 47.45 47.68 40.97 48.47 51.01 46.79 43.21 40.26 40.72 40.69 43.36 41.17 39.20 39.93 39.88 36.27 40.15 39.41 37.26 34.56 31.19 34.83 27.87 35.83 38.65 40.97 41.52 41.50 42.66 44.82 45.66
53.26 53.88 53.72 52.97 47.12 44.50 46.62 50.79 50.62 45.95 18.99 33.69 39.37 48.34 46.65 42.16 42.03 42.22 51.24 46.56 40.32 40.64 40.76 34.69 38.88 39.06 38.06 39.79 40.21 38.15 39.90 38.47 37.86 34.63 31.56 32.64 31.59 33.39 35.39 35.67 39.00 40.42 41.92 42.59 42.08
52.29 52.80 52.90 49.90 47.72 47.24 50.61 49.99 45.63 30.16 19.61 27.26 39.90 40.55 40.78 41.68 41.48 44.09 44.62 46.43 44.44 39.98 37.94 36.70 42.62 41.46 39.84 41.21 41.52 41.63 39.43 38.18 35.18 34.51 29.33 31.35 30.23 31.10 32.35 34.91 35.78 39.12 40.99 41.13 41.61
51.82 51.93 50.87 49.34 43.03 50.09 50.54 44.66 29.06 22.71 28.99 26.10 34.47 38.84 37.97 37.42 39.48 41.00 39.23 39.86 35.87 33.28 33.47 37.98 38.22 39.86 42.05 38.25 38.63 40.35 36.45 29.26 27.04 27.97 25.61 30.27 29.50 33.37 37.53 37.04 38.84 39.87 39.62 40.33 39.00
51.34 51.51 49.66 48.46 48.40 49.49 45.91 34.64 22.43 21.97 23.62 32.20 35.02 36.97 34.42 36.45 37.11 38.70 37.56 35.51 39.88 35.41 31.64 30.55 28.73 37.70 40.90 38.60 35.17 36.53 35.50 26.07 18.69 20.81 23.41 29.63 26.54 31.76 38.67 40.50 40.55 40.63 40.97 39.02 37.77
50.58 47.20 45.83 47.14 48.10 47.90 38.68 26.13 23.98 22.24 30.86 31.85 35.41 30.80 32.65 35.64 34.13 35.85 35.74 35.30 38.01 39.58 32.50 29.19 30.27 36.16 38.30 39.70 39.55 34.50 33.75 37.35 27.48 24.79 26.85 25.83 30.98 35.71 37.75 37.12 37.11 37.14 37.81 36.25 36.52
44.53 42.80 42.50 47.64 47.89 43.67 33.34 28.66 22.32 31.75 33.02 34.12 25.32 31.16 29.20 32.43 32.05 33.26 33.43 37.70 36.74 40.68 39.67 33.08 26.19 34.40 37.14 39.61 40.00 38.19 38.73 32.05 32.84 23.56 21.38 26.52 26.01 29.30 33.01 35.65 36.00 35.43 34.89 35.16 35.49
42.27 35.78 42.61 47.19 46.41 37.00 27.62 27.88 23.76 33.63 35.26 32.37 29.46 27.98 30.00 30.23 32.58 32.16 31.60 34.91 39.16 39.07 41.87 38.05 33.20 31.86 36.49 35.61 34.68 36.56 35.20 35.14 32.98 32.32 25.32 19.80 24.43 32.68 33.71 35.73 34.49 34.34 35.16 34.80 34.82
39.20 29.79 43.34 46.07 33.05 31.98 30.01 31.92 35.09 31.89 33.77 34.19 32.87 31.50 29.58 31.74 32.20 32.86 32.51 33.71 38.49 40.59 36.49 39.70 36.27 28.28 32.00 34.30 36.91 37.91 34.74 35.32 29.45 25.51 29.58 28.12 28.03 38.80 38.04 35.05 35.76 34.72 34.82 34.01 33.57
32.00 33.82 42.90 42.69 27.69 28.13 31.36 32.01 32.69 32.11 31.27 31.98 31.87 32.94 33.32 31.58 26.43 32.61 33.89 37.67 38.64 39.06 37.45 39.17 33.85 24.72 30.10 34.04 37.27 35.39 36.57 36.08 35.50 32.62 28.20 26.23 25.66 35.48 34.19 34.14 35.77 34.00 34.10 32.94 32.31
33.60 28.33 35.68 37.01 35.47 30.65 28.12 27.57 29.18 33.14 33.01 33.86 32.31 34.86 31.47 30.31 33.23 30.91 33.16 36.23 39.64 40.13 42.44 41.12 34.87 31.06 25.82 26.90 33.84 32.71 34.34 35.89 35.07 30.37 29.00 29.27 28.72 31.23 32.75 32.30 32.71 32.27 31.92 31.50 30.76
34.38 29.33 29.61 27.79 29.21 30.96 30.78 26.15 27.33 28.42 32.32 34.50 31.27 32.46 30.56 25.58 27.18 29.44 33.18 35.34 37.28 40.60 40.43 39.24 31.73 32.97 33.14 31.93 32.51 32.51 33.09 34.46 34.02 34.09 30.42 31.21 31.27 35.40 34.98 34.18 33.26 33.15 32.94 31.94 29.13
31.74 30.39 30.94 22.34 31.71 29.71 30.10 28.92 27.50 28.40 30.41 29.55 31.17 31.25 33.02 29.24 30.19 27.74 31.79 33.09 34.26 37.51 38.27 38.85 32.65 34.15 30.95 32.56 32.62 31.23 33.63 34.43 35.22 35.17 35.45 33.39 32.11 39.56 40.26 38.51 36.11 34.17 32.00 28.97 27.27
36.96 35.91 32.64 31.80 30.05 28.53 27.49 26.96 29.17 31.00 33.20 33.10 31.80 30.87 31.99 33.19 35.31 36.22 38.07 37.37 35.97 34.76 33.30 32.86 31.97 31.33 27.90 31.71 32.39 28.02 32.16 34.26 35.37 37.19 36.57 32.22 35.95 37.72 36.65 33.37 29.54 29.22 28.85 25.58 23.90
MSLP
1018.46 1018.61 1018.66 1019.20 1019.33 1019.38 1019.67 1019.90 1019.97 1020.05 1020.15 1020.24 1020.26 1020.32 1020.32 1020.32 1020.21 1020.11 1019.95 1019.15 1019.04 1018.89 1018.70 1018.64 1018.49 1018.37 1018.10 1018.48 1018.55 1019.02 1020.10 1020.21 1019.52 1019.01 1018.51 1018.08 1017.78 1017.40 1017.25 1017.14 1017.02 1017.32 1017.63 1017.71 1017.57
1018.05 1018.55 1018.76 1018.90 1018.91 1019.20 1019.49 1019.71 1019.96 1020.03 1020.16 1020.25 1020.27 1020.37 1020.31 1020.26 1020.31 1020.07 1019.32 1018.84 1018.82 1019.07 1019.19 1019.40 1019.45 1019.27 1019.29 1019.25 1019.28 1019.62 1020.53 1019.96 1019.26 1018.78 1018.55 1018.18 1018.08 1018.03 1017.85 1017.75 1017.51 1017.60 1017.77 1017.85 1017.84
1017.97 1018.31 1018.44 1018.54 1018.85 1019.10 1019.36 1019.55 1019.80 1019.94 1020.17 1020.28 1020.31 1020.41 1020.36 1020.31 1020.24 1019.28 1018.81 1018.67 1018.67 1019.15 1019.37 1019.48 1019.67 1019.86 1019.85 1019.67 1019.66 1019.88 1020.04 1019.69 1019.20 1018.76 1018.55 1018.45 1018.25 1018.24 1018.26 1018.08 1017.90 1018.06 1018.07 1018.33 1018.40
1017.36 1017.90 1018.18 1018.25 1018.55 1019.00 1019.14 1019.42 1019.54 1019.79 1020.07 1020.24 1020.34 1020.40 1020.38 1020.38 1020.16 1018.78 1018.71 1018.34 1018.52 1019.08 1019.46 1019.61 1019.90 1020.20 1020.18 1020.10 1019.85 1020.14 1019.76 1019.56 1019.30 1018.87 1018.70 1018.68 1018.47 1018.55 1018.48 1018.12 1017.85 1017.97 1018.13 1018.41 1018.65
1016.95 1017.38 1017.67 1017.97 1018.51 1018.81 1019.16 1019.27 1019.32 1019.49 1019.88 1020.20 1020.29 1020.31 1020.44 1020.39 1019.43 1018.76 1018.71 1018.47 1018.74 1019.19 1019.62 1019.97 1020.22 1020.32 1020.39 1020.29 1020.18 1020.25 1020.03 1019.66 1019.35 1019.21 1018.95 1018.76 1018.76 1018.85 1018.36 1018.03 1017.91 1017.99 1018.08 1018.33 1018.39
1016.39 1016.97 1017.50 1017.81 1018.27 1018.62 1018.98 1019.20 1019.19 1019.30 1019.67 1020.05 1020.23 1020.34 1020.53 1020.22 1018.85 1018.73 1018.93 1018.98 1019.24 1019.53 1019.79 1020.00 1020.15 1020.30 1020.45 1020.48 1020.55 1020.43 1020.30 1020.03 1019.53 1019.19 1019.12 1019.02 1018.89 1018.85 1018.14 1017.96 1018.02 1018.11 1018.04 1018.05 1018.08
1016.21 1016.71 1017.35 1017.66 1017.99 1018.49 1018.75 1018.88 1019.14 1019.20 1019.49 1019.82 1020.08 1020.35 1020.46 1019.66 1018.87 1019.05 1019.12 1019.30 1019.27 1019.47 1019.79 1019.85 1020.10 1020.42 1020.54 1020.54 1020.55 1020.43 1020.62 1020.35 1019.97 1019.47 1019.23 1019.05 1019.12 1018.86 1018.30 1018.15 1018.22 1018.22 1018.22 1017.96 1017.74
1016.00 1016.46 1016.97 1017.28 1017.79 1018.27 1018.71 1018.66 1018.91 1019.07 1019.50 1019.67 1020.01 1020.53 1020.25 1019.13 1019.06 1019.31 1019.23 1019.24 1019.10 1019.41 1019.70 1019.70 1019.97 1020.29 1020.50 1020.58 1020.75 1020.83 1021.07 1021.02 1020.19 1019.81 1019.32 1019.49 1018.67 1018.80 1018.23 1018.28 1018.29 1018.25 1018.05 1018.01 1017.53
1015.73 1016.14 1016.55 1016.97 1017.58 1018.06 1018.55 1018.72 1018.87 1019.01 1019.55 1019.69 1020.27 1020.53 1020.15 1019.05 1019.21 1018.64 1019.03 1019.28 1019.24 1019.50 1019.64 1019.67 1020.01 1020.29 1020.64 1020.92 1021.45 1021.46 1021.41 1021.44 1021.02 1020.07 1019.95 1019.84 1018.97 1018.62 1018.35 1018.59 1018.74 1018.30 1018.30 1017.96 1017.24
1015.50 1015.95 1016.49 1016.78 1017.47 1017.85 1018.20 1018.51 1018.94 1019.04 1019.87 1019.69 1020.21 1020.63 1019.74 1018.69 1018.38 1018.49 1018.55 1018.98 1019.35 1019.64 1019.95 1020.21 1020.60 1020.74 1020.75 1021.04 1020.77 1021.43 1021.74 1021.53 1021.60 1020.74 1020.29 1020.08 1019.16 1019.23 1018.89 1018.76 1018.76 1018.47 1018.17 1017.65 1016.93
1015.02 1015.55 1015.94 1016.44 1016.96 1017.40 1018.10 1018.91 1019.55 1020.00 1019.72 1019.14 1018.90 1018.70 1018.04 1018.35 1018.23 1018.39 1018.62 1019.19 1019.59 1019.85 1020.31 1020.61 1020.96 1020.44 1020.80 1020.99 1021.25 1021.57 1021.85 1022.11 1021.93 1021.34 1021.18 1020.40 1019.38 1019.18 1018.73 1018.75 1018.59 1018.25 1017.67 1017.06 1016.32
1014.56 1015.16 1015.60 1016.04 1016.67 1017.08 1017.89 1018.43 1018.61 1018.70 1019.08 1019.00 1019.04 1018.48 1018.11 1018.15 1018.53 1018.53 1018.65 1019.40 1019.74 1020.03 1020.48 1021.25 1020.42 1020.62 1020.70 1020.89 1021.24 1021.63 1021.98 1022.14 1022.31 1021.88 1021.62 1020.97 1019.02 1018.95 1018.78 1018.36 1018.08 1017.64 1017.09 1016.43 1015.73
1014.07 1014.66 1015.20 1015.89 1016.45 1017.25 1017.91 1018.27 1018.24 1018.35 1018.78 1018.72 1018.65 1018.35 1018.20 1018.42 1018.17 1018.50 1018.66 1019.15 1019.60 1020.32 1020.61 1020.65 1020.26 1020.21 1020.91 1021.27 1021.70 1021.88 1022.24 1022.64 1022.67 1022.29 1021.59 1021.31 1018.55 1018.43 1017.80 1017.40 1016.88 1016.81 1016.20 1015.70 1015.45
1013.69 1014.31 1014.82 1015.70 1017.02 1017.19 1017.96 1018.34 1018.27 1018.14 1019.10 1018.53 1018.10 1017.01 1017.66 1018.16 1018.16 1017.88 1018.15 1018.72 1019.78 1020.12 1021.01 1020.98 1020.40 1020.60 1021.03 1021.30 1021.85 1021.91 1022.16 1022.49 1022.92 1022.99 1022.33 1021.53 1019.03 1018.16 1017.69 1016.81 1016.55 1016.26 1015.90 1015.25 1014.87
1013.23 1013.86 1014.46 1015.21 1016.07 1016.70 1017.40 1018.01 1018.31 1018.85 1019.02 1016.51 1016.60 1015.74 1016.27 1017.26 1017.47 1018.08 1018.03 1018.61 1019.24 1019.83 1020.52 1020.13 1020.04 1020.38 1020.78 1020.91 1021.80 1021.77 1021.93 1022.37 1022.66 1022.87 1022.64 1022.01 1021.76 1016.83 1017.08 1016.73 1015.93 1015.79 1015.38 1015.04 1015.03
1012.77 1013.49 1014.16 1015.24 1015.81 1016.29 1016.82 1017.72 1018.84 1019.49 1017.47 1016.40 1015.99 1015.59 1016.50 1016.74 1017.38 1018.12 1018.42 1018.53 1019.06 1019.95 1020.08 1020.19 1020.16 1020.25 1020.26 1020.72 1021.10 1021.56 1022.22 1022.49 1022.83 1022.98 1022.31 1021.48 1021.58 1017.60 1017.06 1015.97 1015.78 1015.59 1015.48 1015.58 1015.61
1012.38 1013.10 1013.94 1014.83 1015.41 1015.85 1016.78 1018.06 1019.11 1018.03 1016.74 1016.48 1015.77 1015.77 1016.08 1016.44 1017.13 1017.26 1018.28 1018.39 1018.49 1019.59 1019.37 1020.13 1020.23 1020.30 1020.34 1020.88 1021.12 1021.52 1022.31 1022.47 1022.84 1022.71 1021.46 1020.59 1020.58 1017.64 1016.46 1015.82 1015.76 1015.69 1015.86 1016.65 1016.96
1011.96 1012.79 1013.39 1014.32 1015.04 1015.61 1016.82 1017.76 1017.16 1016.20 1016.25 1015.68 1015.47 1015.74 1015.90 1016.30 1016.36 1016.87 1017.56 1017.66 1017.84 1018.10 1018.64 1019.47 1019.87 1019.92 1019.76 1019.84 1020.59 1021.05 1021.72 1021.82 1021.86 1022.24 1021.61 1020.77 1019.42 1016.92 1015.80 1015.51 1015.50 1015.73 1016.01 1017.68 1018.55
1011.78 1012.72 1013.38 1014.12 1014.65 1015.65 1016.41 1016.05 1015.32 1015.01 1014.93 1015.48 1015.71 1015.80 1016.05 1015.82 1016.04 1016.76 1016.58 1016.74 1016.77 1017.05 1017.90 1018.75 1018.97 1018.73 1018.99 1019.05 1019.64 1020.42 1020.64 1020.57 1021.50 1022.13 1022.11 1020.60 1018.85 1016.86 1016.02 1015.98 1016.08 1016.81 1017.88 1018.75 1019.51
1011.41 1012.42 1012.85 1013.73 1014.27 1015.32 1015.56 1015.12 1015.15 1014.46 1014.25 1014.78 1015.01 1014.90 1015.08 1015.41 1016.05 1016.25 1016.35 1015.29 1015.89 1016.37 1016.81 1017.54 1018.51 1018.58 1018.82 1019.07 1019.16 1019.11 1019.52 1020.60 1021.27 1021.54 1021.18 1020.17 1019.32 1017.37 1016.49 1016.45 1017.15 1018.22 1019.15 1020.05 1020.78
1011.07 1011.86 1012.06 1013.28 1014.43 1014.58 1013.92 1014.43 1014.87 1014.23 1013.87 1014.45 1014.76 1014.91 1014.88 1015.06 1015.35 1015.65 1015.03 1014.86 1014.89 1015.59 1016.46 1017.17 1017.90 1018.94 1018.95 1018.14 1018.04 1018.95 1019.11 1019.51 1020.16 1020.55 1020.27 1020.11 1018.21 1016.51 1016.61 1017.00 1017.92 1019.14 1020.05 1020.79 1021.65
1010.32 1011.41 1011.63 1012.57 1013.27 1013.05 1013.52 1014.20 1014.04 1014.24 1014.26 1014.37 1014.41 1014.59 1014.76 1014.94 1014.99 1015.20 1014.87 1014.38 1014.07 1014.81 1015.43 1016.36 1017.63 1018.26 1017.95 1017.71 1017.67 1017.65 1017.62 1018.40 1019.03 1019.76 1019.75 1019.21 1017.25 1016.71 1016.60 1017.74 1017.09 1019.07 1020.43 1021.27 1022.13
1010.29 1011.26 1011.62 1011.83 1011.97 1012.71 1013.49 1013.82 1014.06 1014.26 1014.22 1014.38 1014.60 1014.57 1014.58 1014.63 1015.06 1014.75 1014.48 1014.22 1014.21 1014.59 1014.70 1016.07 1016.72 1017.67 1017.72 1018.14 1017.66 1017.34 1017.58 1017.55 1018.01 1018.45 1018.34 1018.83 1017.31 1017.32 1017.51 1018.16 1018.94 1019.46 1020.54 1020.90 1021.89
1010.08 1010.80 1011.13 1011.55 1012.19 1012.69 1013.27 1013.70 1014.11 1014.11 1014.07 1014.24 1014.25 1014.63 1014.96 1014.60 1014.23 1014.14 1014.20 1014.24 1014.11 1014.30 1014.70 1015.36 1015.73 1015.72 1015.58 1015.74 1016.16 1016.76 1016.60 1016.78 1017.27 1017.48 1016.68 1016.86 1017.16 1017.90 1018.27 1018.72 1019.66 1020.46 1021.18 1021.99 1022.56
1009.60 1010.25 1010.36 1010.90 1012.01 1012.60 1013.20 1013.09 1013.58 1014.02 1014.19 1014.27 1014.47 1014.39 1014.58 1014.76 1014.33 1014.17 1014.16 1014.36 1014.35 1014.28 1014.56 1015.17 1014.68 1015.59 1015.47 1015.56 1015.36 1015.07 1015.25 1015.74 1015.96 1015.36 1016.46 1015.79 1016.56 1017.11 1018.24 1018.94 1019.65 1020.47 1021.23 1021.94 1023.03
1009.22 1009.99 1010.82 1011.04 1011.63 1012.81 1012.91 1013.08 1013.08 1013.26 1013.63 1014.32 1014.19 1013.79 1014.06 1013.67 1013.48 1013.58 1013.95 1014.15 1014.45 1014.95 1014.68 1015.16 1014.58 1014.86 1014.82 1015.19 1015.16 1015.12 1014.61 1014.46 1014.58 1014.92 1015.48 1015.88 1016.20 1016.41 1017.91 1019.39 1020.55 1021.28 1022.28 1023.22 1023.92
1009.56 1009.91 1010.26 1011.22 1011.91 1012.67 1012.38 1012.70 1012.99 1013.36 1013.33 1013.14 1012.97 1013.55 1013.38 1012.38 1012.53 1012.64 1012.84 1013.25 1013.64 1014.08 1014.57 1015.11 1014.66 1013.81 1013.53 1014.19 1014.91 1014.73 1013.08 1013.78 1013.92 1014.48 1014.73 1015.57 1015.43 1017.08 1018.64 1020.23 1021.63 1022.53 1022.88 1023.95 1024.55
Wind_Speed
10 8 8 12 11 10 9 7 7 5 3 2 1 2 3 4 5 2 4 6 2 8 8 7 8 8 5 4 5 3 5 1 2 2 4 4 5 4 4 3 4 3 2 4 3
11 12 11 10 9 11 10 8 7 5 4 3 2 1 2 2 2 4 8 10 5 5 5 6 6 8 4 4 4 5 4 7 3 1 1 5 3 3 6 7 3 3 0 2 4
13 14 12 10 9 10 11 10 8 6 5 4 3 1 1 0 3 6 4 12 13 2 3 1 2 3 2 2 1 2 5 4 2 2 2 2 5 2 2 3 2 4 4 1 3
14 15 14 12 10 9 8 9 9 8 7 6 4 3 3 0 5 1 8 10 8 7 2 1 1 1 1 2 1 1 4 3 2 1 1 2 1 2 3 7 4 5 3 4 7
15 13 14 13 11 9 8 8 8 9 8 7 5 6 3 2 6 2 6 9 6 7 5 3 3 3 3 2 2 2 3 3 5 6 7 3 5 5 8 9 9 6 5 7 9
13 14 13 12 11 11 9 8 8 8 9 8 7 5 1 6 4 3 2 3 4 4 5 6 4 3 3 2 3 2 2 6 5 6 4 4 4 4 5 6 8 6 10 9 9
13 14 14 13 11 9 9 8 7 6 8 9 9 3 0 10 3 5 4 1 4 4 5 4 4 2 2 1 1 2 3 6 4 5 4 1 4 7 9 6 9 9 8 10 9
14 15 15 13 12 10 9 8 6 5 5 8 9 4 5 6 4 9 3 5 4 3 2 3 5 2 3 1 4 1 3 1 4 3 7 4 11 8 10 7 11 9 9 8 10
13 14 14 13 11 10 10 8 6 3 3 4 4 5 6 1 4 9 6 4 5 3 1 1 4 3 2 3 2 3 4 3 6 3 4 6 3 5 6 3 10 9 8 9 9
14 16 16 15 14 12 10 8 5 6 2 4 1 2 3 7 4 3 5 6 1 5 3 3 3 3 4 6 12 10 5 3 4 4 1 8 14 8 10 5 8 9 9 9 9
14 15 17 14 13 14 10 6 5 1 4 5 6 4 2 2 3 3 4 6 3 3 6 2 5 10 10 12 7 3 3 2 2 5 4 9 15 12 8 5 9 9 9 10 13
15 16 17 16 15 13 8 5 5 3 4 12 4 7 2 4 3 4 7 8 7 6 6 3 12 8 3 8 12 9 12 16 4 9 5 7 20 10 8 8 8 11 11 13 15
16 17 20 18 15 7 8 6 1 3 1 4 10 5 4 3 5 9 12 5 5 7 9 13 3 10 8 4 5 5 6 4 9 5 6 6 22 12 7 7 9 8 11 12 15
17 19 21 19 8 6 7 6 3 1 3 6 9 10 7 6 5 5 10 9 4 14 7 11 12 4 5 12 7 14 7 6 4 2 9 3 15 13 10 17 11 9 11 15 15
17 20 23 21 7 9 7 8 4 5 4 8 8 6 14 12 8 6 4 4 9 7 9 8 7 13 9 11 8 7 6 9 6 5 5 5 6 10 1 9 14 11 12 12 8
18 21 24 12 4 7 11 11 5 5 11 3 8 13 15 13 3 5 4 3 4 5 1 3 2 6 6 6 13 3 2 4 3 3 9 6 7 12 4 7 3 5 9 6 6
19 21 20 8 6 11 12 8 7 10 2 6 9 11 20 15 17 10 14 14 10 12 14 6 6 2 3 4 3 5 4 2 4 6 8 3 7 14 12 5 9 12 3 5 7
21 20 17 7 8 12 10 8 11 8 10 1 7 11 17 10 19 18 14 17 19 3 6 12 9 13 9 14 8 10 10 6 5 5 5 2 8 8 9 8 8 7 9 9 11
21 10 9 8 14 10 9 13 13 7 11 7 12 10 13 16 6 16 22 20 19 19 12 9 10 2 3 5 15 6 13 12 2 2 5 5 8 10 8 7 5 4 9 11 9
10 9 12 12 15 13 10 16 6 5 6 7 9 8 13 16 11 20 15 15 20 21 7 6 1 5 6 3 3 6 7 5 6 6 8 3 6 10 6 7 3 8 11 10 8
7 7 7 15 10 11 13 8 4 5 6 8 8 7 7 11 17 13 9 10 23 17 22 5 2 2 6 12 16 6 7 3 2 4 2 3 7 7 5 5 10 11 10 11 11
5 6 10 15 12 5 12 8 7 4 2 3 4 5 9 10 12 15 15 15 9 17 26 19 4 6 14 1 5 16 12 16 6 6 5 2 13 2 3 6 18 14 11 9 8
6 3 6 13 11 4 5 5 6 7 5 7 6 5 4 11 4 18 12 9 7 18 17 14 9 4 4 3 1 10 11 14 14 2 13 4 6 5 7 9 6 13 9 10 10
4 5 5 7 3 7 8 7 6 3 6 2 4 7 4 6 8 9 13 7 11 13 16 18 9 12 14 4 10 12 15 18 16 7 12 18 6 4 3 9 8 8 8 8 9
2 3 2 7 10 3 4 7 14 7 2 11 5 10 15 9 4 5 4 4 1 8 16 13 11 16 17 4 7 11 19 21 21 23 11 11 17 7 10 12 9 8 7 9 8
3 4 2 3 12 12 13 6 12 5 9 4 8 14 11 15 17 10 7 5 7 4 9 3 7 18 21 11 9 6 16 20 25 23 19 4 7 8 8 7 6 7 8 8 7
1 2 3 8 9 13 10 8 16 8 8 11 20 12 10 21 16 11 9 7 5 11 15 10 5 4 20 9 8 8 22 19 20 20 20 18 17 3 10 10 6 4 8 9 10
Wind_Direction
220 226 223 221 206 203 210 211 204 204 213 231 291 353 359 7 331 351 263 243 336 354 351 342 4 343 13 11 16 103 55 207 224 108 270 345 26 331 306 351 4 31 124 285 240
217 219 211 210 211 207 202 203 210 208 211 208 238 348 4 18 57 264 238 255 259 345 10 24 353 347 360 3 8 85 122 218 187 237 304 320 35 307 9 349 338 337 35 22 109
216 214 208 200 201 211 208 199 205 206 213 213 210 163 183 172 17 247 333 260 256 156 282 77 328 327 328 349 302 154 195 205 252 190 161 274 325 356 8 328 252 298 322 242 189
217 221 210 199 187 193 196 205 204 203 208 210 196 161 162 76 219 184 329 288 232 166 215 56 27 269 201 235 287 242 245 272 271 253 329 260 247 300 245 229 259 276 301 198 224
208 218 207 195 190 190 196 198 205 205 205 210 183 164 144 202 239 338 21 38 117 144 160 160 184 170 195 220 3 211 271 292 264 241 248 276 240 231 246 259 277 285 274 230 229
202 205 201 194 196 197 198 205 208 206 209 199 178 157 159 211 259 115 39 62 122 131 174 170 208 211 215 229 170 300 276 284 307 279 263 238 246 148 272 256 285 304 287 266 234
199 198 200 196 195 211 207 202 211 209 217 202 176 125 273 215 149 29 26 277 197 182 176 205 140 82 17 292 262 272 317 322 259 270 270 271 281 236 252 289 287 283 289 304 266
208 203 198 194 189 193 211 198 204 207 235 213 174 86 235 247 315 289 267 293 231 187 175 210 161 186 189 250 353 28 90 247 277 228 264 177 261 256 253 255 277 291 294 309 298
214 203 196 190 195 199 200 192 187 180 209 189 139 130 250 347 196 240 178 236 137 150 196 67 146 191 147 162 294 247 237 217 311 246 279 203 274 269 330 257 269 281 290 300 295
207 203 199 193 191 187 193 169 171 96 137 103 27 130 230 223 180 203 195 167 168 121 119 90 74 174 179 196 228 237 232 176 219 303 283 281 275 272 284 259 262 282 282 280 292
199 203 196 191 194 188 153 103 82 350 211 215 187 236 116 227 118 196 154 119 107 152 174 159 200 210 208 229 240 254 227 285 337 274 306 276 284 289 281 281 270 274 277 278 272
204 198 194 187 191 187 139 156 180 172 181 244 299 228 79 169 137 218 145 162 170 180 138 147 233 224 252 231 231 240 259 259 255 260 279 268 279 281 268 249 233 248 258 261 274
205 202 189 180 184 161 178 164 111 136 85 228 210 219 209 166 191 188 163 145 169 174 188 222 168 189 192 201 193 203 217 222 243 293 270 284 279 264 255 244 247 255 251 259 257
200 197 187 172 172 133 186 174 39 69 343 241 195 221 173 163 249 166 176 157 208 207 153 242 242 152 180 220 189 244 195 210 219 266 271 134 292 274 276 275 259 250 252 258 260
204 194 186 163 135 174 159 133 67 61 234 209 181 184 162 180 129 213 174 83 179 164 167 224 179 191 199 209 181 242 173 197 199 216 321 201 254 283 61 285 273 247 255 256 277
201 197 183 163 118 160 143 129 83 186 224 182 147 177 163 184 178 127 151 82 135 152 289 222 356 183 203 176 183 156 156 48 43 155 246 170 192 269 262 232 269 282 289 317 61
199 194 181 147 168 146 135 135 180 211 337 220 183 183 182 185 191 167 176 190 170 190 219 193 194 188 162 123 110 148 151 237 215 218 254 208 211 250 275 262 244 269 305 59 61
195 188 193 160 146 154 160 183 214 202 206 249 163 158 194 159 210 200 176 205 210 182 175 199 228 185 180 201 173 198 191 203 213 206 255 52 236 253 240 276 285 288 143 86 62
188 192 190 176 162 166 181 207 200 185 166 156 142 163 194 199 158 195 208 211 212 199 199 179 232 102 192 154 168 186 209 219 303 117 274 234 283 291 268 309 4 34 89 86 78
179 186 195 165 169 175 207 208 213 185 155 159 175 169 186 193 189 188 191 212 209 200 189 205 286 211 183 134 162 180 158 163 188 233 232 228 279 242 293 323 29 76 91 79 61
167 183 180 162 174 191 209 215 193 239 135 164 196 166 196 183 197 197 205 234 197 197 203 171 94 167 131 200 187 178 204 168 138 194 210 228 249 215 234 287 119 95 83 78 64
143 172 177 157 195 190 202 174 187 154 165 176 116 172 181 181 202 207 206 206 194 188 202 201 180 209 208 177 208 216 223 207 212 204 234 224 264 7 133 184 127 119 108 92 76
136 119 185 169 201 181 141 174 162 159 177 181 170 214 196 189 205 208 199 206 180 192 189 166 211 210 232 253 142 207 208 206 211 109 217 205 261 10 92 85 83 114 104 106 93
130 144 146 191 182 191 163 180 159 162 203 165 188 216 275 220 217 196 217 210 200 198 207 165 202 217 222 197 142 207 200 208 207 224 237 226 239 184 134 132 129 112 110 96 69
141 165 183 165 190 168 143 177 176 156 209 201 227 213 211 244 223 202 192 204 229 214 208 209 227 217 232 251 186 199 206 202 205 218 205 225 213 190 179 166 157 140 118 91 70
120 138 65 141 184 164 174 186 174 158 146 193 221 218 226 228 227 235 178 196 205 240 222 242 246 211 220 213 209 238 208 205 210 223 233 249 259 198 149 127 137 139 136 125 89
134 64 94 154 156 185 203 176 184 182 220 204 205 202 216 225 218 224 190 182 198 205 201 230 241 260 220 193 184 234 218 202 213 217 212 219 226 128 143 149 137 126 99 77 62